Year,Month,Day,Hour,Minute,Value (Times are PST for temperature in C)
2021,12,28,00,00,-7.40
2021,12,28,00,01,-7.40
2021,12,28,00,02,-7.40
2021,12,28,00,03,-7.40
2021,12,28,00,04,-7.40
2021,12,28,00,05,-7.40
2021,12,28,00,06,-7.40
2021,12,28,00,07,-7.40
2021,12,28,00,08,-7.40
2021,12,28,00,09,-7.40
2021,12,28,00,10,-7.50
2021,12,28,00,11,-7.50
2021,12,28,00,12,-7.50
2021,12,28,00,13,-7.50
2021,12,28,00,14,-7.40
2021,12,28,00,15,-7.40
2021,12,28,00,16,-7.40
2021,12,28,00,17,-7.40
2021,12,28,00,18,-7.40
2021,12,28,00,19,-7.40
2021,12,28,00,20,-7.40
2021,12,28,00,21,-7.40
2021,12,28,00,22,-7.40
2021,12,28,00,23,-7.40
2021,12,28,00,24,-7.40
2021,12,28,00,25,-7.40
2021,12,28,00,26,-7.40
2021,12,28,00,27,-7.40
2021,12,28,00,28,-7.40
2021,12,28,00,29,-7.40
2021,12,28,00,30,-7.40
2021,12,28,00,31,-7.40
2021,12,28,00,32,-7.40
2021,12,28,00,33,-7.40
2021,12,28,00,34,-7.40
2021,12,28,00,35,-7.40
2021,12,28,00,36,-7.40
2021,12,28,00,37,-7.40
2021,12,28,00,38,-7.40
2021,12,28,00,39,-7.40
2021,12,28,00,40,-7.40
2021,12,28,00,41,-7.40
2021,12,28,00,42,-7.40
2021,12,28,00,43,-7.40
2021,12,28,00,44,-7.40
2021,12,28,00,45,-7.40
2021,12,28,00,46,-7.40
2021,12,28,00,47,-7.40
2021,12,28,00,48,-7.40
2021,12,28,00,49,-7.40
2021,12,28,00,50,-7.40
2021,12,28,00,51,-7.40
2021,12,28,00,52,-7.40
2021,12,28,00,53,-7.40
2021,12,28,00,54,-7.40
2021,12,28,00,55,-7.40
2021,12,28,00,56,-7.40
2021,12,28,00,57,-7.40
2021,12,28,00,58,-7.40
2021,12,28,00,59,-7.40
2021,12,28,01,00,-7.40
2021,12,28,01,01,-7.40
2021,12,28,01,02,-7.40
2021,12,28,01,03,-7.40
2021,12,28,01,04,-7.40
2021,12,28,01,05,-7.40
2021,12,28,01,06,-7.40
2021,12,28,01,07,-7.40
2021,12,28,01,08,-7.40
2021,12,28,01,09,-7.40
2021,12,28,01,10,-7.40
2021,12,28,01,11,-7.40
2021,12,28,01,12,-7.40
2021,12,28,01,13,-7.40
2021,12,28,01,14,-7.40
2021,12,28,01,15,-7.40
2021,12,28,01,16,-7.40
2021,12,28,01,17,-7.40
2021,12,28,01,18,-7.40
2021,12,28,01,19,-7.30
2021,12,28,01,20,-7.40
2021,12,28,01,21,-7.30
2021,12,28,01,22,-7.30
2021,12,28,01,23,-7.30
2021,12,28,01,24,-7.30
2021,12,28,01,25,-7.30
2021,12,28,01,26,-7.30
2021,12,28,01,27,-7.30
2021,12,28,01,28,-7.30
2021,12,28,01,29,-7.30
2021,12,28,01,30,-7.30
2021,12,28,01,31,-7.30
2021,12,28,01,32,-7.30
2021,12,28,01,33,-7.30
2021,12,28,01,34,-7.30
2021,12,28,01,35,-7.30
2021,12,28,01,36,-7.30
2021,12,28,01,37,-7.30
2021,12,28,01,38,-7.30
2021,12,28,01,39,-7.30
2021,12,28,01,40,-7.30
2021,12,28,01,41,-7.30
2021,12,28,01,42,-7.30
2021,12,28,01,43,-7.30
2021,12,28,01,44,-7.30
2021,12,28,01,45,-7.30
2021,12,28,01,46,-7.30
2021,12,28,01,47,-7.40
2021,12,28,01,48,-7.40
2021,12,28,01,49,-7.40
2021,12,28,01,50,-7.40
2021,12,28,01,51,-7.40
2021,12,28,01,52,-7.40
2021,12,28,01,53,-7.40
2021,12,28,01,54,-7.40
2021,12,28,01,55,-7.40
2021,12,28,01,56,-7.40
2021,12,28,01,57,-7.40
2021,12,28,01,58,-7.40
2021,12,28,01,59,-7.40
2021,12,28,02,00,-7.40
2021,12,28,02,01,-7.40
2021,12,28,02,02,-7.40
2021,12,28,02,03,-7.40
2021,12,28,02,04,-7.40
2021,12,28,02,05,-7.40
2021,12,28,02,06,-7.40
2021,12,28,02,07,-7.40
2021,12,28,02,08,-7.40
2021,12,28,02,09,-7.40
2021,12,28,02,10,-7.40
2021,12,28,02,11,-7.40
2021,12,28,02,12,-7.40
2021,12,28,02,13,-7.40
2021,12,28,02,14,-7.40
2021,12,28,02,15,-7.40
2021,12,28,02,16,-7.40
2021,12,28,02,17,-7.40
2021,12,28,02,18,-7.40
2021,12,28,02,19,-7.40
2021,12,28,02,20,-7.40
2021,12,28,02,21,-7.40
2021,12,28,02,22,-7.30
2021,12,28,02,23,-7.30
2021,12,28,02,24,-7.30
2021,12,28,02,25,-7.30
2021,12,28,02,26,-7.30
2021,12,28,02,27,-7.30
2021,12,28,02,28,-7.30
2021,12,28,02,29,-7.30
2021,12,28,02,30,-7.30
2021,12,28,02,31,-7.30
2021,12,28,02,32,-7.30
2021,12,28,02,33,-7.30
2021,12,28,02,34,-7.40
2021,12,28,02,35,-7.40
2021,12,28,02,36,-7.40
2021,12,28,02,37,-7.40
2021,12,28,02,38,-7.40
2021,12,28,02,39,-7.40
2021,12,28,02,40,-7.40
2021,12,28,02,41,-7.40
2021,12,28,02,42,-7.40
2021,12,28,02,43,-7.40
2021,12,28,02,44,-7.40
2021,12,28,02,45,-7.40
2021,12,28,02,46,-7.40
2021,12,28,02,47,-7.40
2021,12,28,02,48,-7.40
2021,12,28,02,49,-7.40
2021,12,28,02,50,-7.40
2021,12,28,02,51,-7.40
2021,12,28,02,52,-7.40
2021,12,28,02,53,-7.30
2021,12,28,02,54,-7.30
2021,12,28,02,55,-7.30
2021,12,28,02,56,-7.30
2021,12,28,02,57,-7.30
2021,12,28,02,58,-7.30
2021,12,28,02,59,-7.30
2021,12,28,03,00,-7.20
2021,12,28,03,01,-7.20
2021,12,28,03,02,-7.20
2021,12,28,03,03,-7.20
2021,12,28,03,04,-7.20
2021,12,28,03,05,-7.20
2021,12,28,03,06,-7.10
2021,12,28,03,07,-7.10
2021,12,28,03,08,-7.10
2021,12,28,03,09,-7.10
2021,12,28,03,10,-7.10
2021,12,28,03,11,-7.10
2021,12,28,03,12,-7.10
2021,12,28,03,13,-7.10
2021,12,28,03,14,-7.10
2021,12,28,03,15,-7.10
2021,12,28,03,16,-7.10
2021,12,28,03,17,-7.10
2021,12,28,03,18,-7.10
2021,12,28,03,19,-7.10
2021,12,28,03,20,-7.10
2021,12,28,03,21,-7.10
2021,12,28,03,22,-7.10
2021,12,28,03,23,-7.10
2021,12,28,03,24,-7.10
2021,12,28,03,25,-7.10
2021,12,28,03,26,-7.10
2021,12,28,03,27,-7.10
2021,12,28,03,28,-7.10
2021,12,28,03,29,-7.10
2021,12,28,03,30,-7.10
2021,12,28,03,31,-7.10
2021,12,28,03,32,-7.10
2021,12,28,03,33,-7.10
2021,12,28,03,34,-7.10
2021,12,28,03,35,-7.10
2021,12,28,03,36,-7.20
2021,12,28,03,37,-7.20
2021,12,28,03,38,-7.20
2021,12,28,03,39,-7.20
2021,12,28,03,40,-7.20
2021,12,28,03,41,-7.20
2021,12,28,03,42,-7.20
2021,12,28,03,43,-7.20
2021,12,28,03,44,-7.20
2021,12,28,03,45,-7.20
2021,12,28,03,46,-7.20
2021,12,28,03,47,-7.20
2021,12,28,03,48,-7.20
2021,12,28,03,49,-7.20
2021,12,28,03,50,-7.20
2021,12,28,03,51,-7.20
2021,12,28,03,52,-7.20
2021,12,28,03,53,-7.20
2021,12,28,03,54,-7.30
2021,12,28,03,55,-7.20
2021,12,28,03,56,-7.30
2021,12,28,03,57,-7.30
2021,12,28,03,58,-7.30
2021,12,28,03,59,-7.30
2021,12,28,04,00,-7.30
2021,12,28,04,01,-7.30
2021,12,28,04,02,-7.30
2021,12,28,04,03,-7.30
2021,12,28,04,04,-7.30
2021,12,28,04,05,-7.30
2021,12,28,04,06,-7.20
2021,12,28,04,07,-7.20
2021,12,28,04,08,-7.20
2021,12,28,04,09,-7.20
2021,12,28,04,10,-7.20
2021,12,28,04,11,-7.20
2021,12,28,04,12,-7.20
2021,12,28,04,13,-7.20
2021,12,28,04,14,-7.20
2021,12,28,04,15,-7.20
2021,12,28,04,16,-7.20
2021,12,28,04,17,-7.20
2021,12,28,04,18,-7.20
2021,12,28,04,19,-7.20
2021,12,28,04,20,-7.20
2021,12,28,04,21,-7.10
2021,12,28,04,22,-7.10
2021,12,28,04,23,-7.10
2021,12,28,04,24,-7.10
2021,12,28,04,25,-7.10
2021,12,28,04,26,-7.10
2021,12,28,04,27,-7.10
2021,12,28,04,28,-7.10
2021,12,28,04,29,-7.10
2021,12,28,04,30,-7.00
2021,12,28,04,31,-7.00
2021,12,28,04,32,-7.00
2021,12,28,04,33,-7.00
2021,12,28,04,34,-7.00
2021,12,28,04,35,-7.00
2021,12,28,04,36,-7.00
2021,12,28,04,37,-7.00
2021,12,28,04,38,-6.90
2021,12,28,04,39,-6.90
2021,12,28,04,40,-6.90
2021,12,28,04,41,-6.90
2021,12,28,04,42,-6.90
2021,12,28,04,43,-6.90
2021,12,28,04,44,-6.90
2021,12,28,04,45,-6.90
2021,12,28,04,46,-6.90
2021,12,28,04,47,-6.90
2021,12,28,04,48,-6.90
2021,12,28,04,49,-6.90
2021,12,28,04,50,-6.80
2021,12,28,04,51,-6.80
2021,12,28,04,52,-6.80
2021,12,28,04,53,-6.80
2021,12,28,04,54,-6.80
2021,12,28,04,55,-6.80
2021,12,28,04,56,-6.80
2021,12,28,04,57,-6.80
2021,12,28,04,58,-6.80
2021,12,28,04,59,-6.80
2021,12,28,05,00,-6.80
2021,12,28,05,01,-6.80
2021,12,28,05,02,-6.80
2021,12,28,05,03,-6.80
2021,12,28,05,04,-6.80
2021,12,28,05,05,-6.80
2021,12,28,05,06,-6.80
2021,12,28,05,07,-6.80
2021,12,28,05,08,-6.80
2021,12,28,05,09,-6.80
2021,12,28,05,10,-6.80
2021,12,28,05,11,-6.80
2021,12,28,05,12,-6.80
2021,12,28,05,13,-6.80
2021,12,28,05,14,-6.80
2021,12,28,05,15,-6.80
2021,12,28,05,16,-6.80
2021,12,28,05,17,-6.80
2021,12,28,05,18,-6.80
2021,12,28,05,19,-6.80
2021,12,28,05,20,-6.80
2021,12,28,05,21,-6.80
2021,12,28,05,22,-6.80
2021,12,28,05,23,-6.80
2021,12,28,05,24,-6.80
2021,12,28,05,25,-6.80
2021,12,28,05,26,-7.10
2021,12,28,05,27,-7.80
2021,12,28,05,28,-7.80
2021,12,28,05,29,-7.80
2021,12,28,05,30,-7.80
2021,12,28,05,31,-7.80
2021,12,28,05,32,-7.80
2021,12,28,05,33,-7.80
2021,12,28,05,34,-7.80
2021,12,28,05,35,-7.80
2021,12,28,05,36,-7.80
2021,12,28,05,37,-7.80
2021,12,28,10,08,-5.90
2021,12,28,10,09,-5.90
2021,12,28,10,10,-5.90
2021,12,28,10,11,-5.90
2021,12,28,10,12,-5.90
2021,12,28,10,13,-5.90
2021,12,28,10,14,-5.90
2021,12,28,10,15,-5.90
2021,12,28,10,16,-5.80
2021,12,28,10,17,-5.80
2021,12,28,10,18,-5.80
2021,12,28,10,19,-5.80
2021,12,28,10,20,-5.80
2021,12,28,10,21,-5.80
2021,12,28,10,22,-5.80
2021,12,28,10,23,-5.80
2021,12,28,10,24,-5.80
2021,12,28,10,25,-5.80
2021,12,28,10,26,-5.80
2021,12,28,10,27,-5.80
2021,12,28,10,28,-5.80
2021,12,28,10,29,-5.80
2021,12,28,10,30,-5.80
2021,12,28,10,31,-5.80
2021,12,28,10,32,-5.80
2021,12,28,10,33,-5.80
2021,12,28,10,34,-5.80
2021,12,28,10,35,-5.70
2021,12,28,10,36,-5.70
2021,12,28,10,37,-5.70
2021,12,28,10,38,-5.70
2021,12,28,10,39,-5.70
2021,12,28,10,40,-5.70
2021,12,28,10,41,-5.70
2021,12,28,10,42,-5.70
2021,12,28,10,43,-5.70
2021,12,28,10,44,-5.70
2021,12,28,10,45,-5.70
2021,12,28,10,46,-5.70
2021,12,28,10,47,-5.70
2021,12,28,10,48,-5.70
2021,12,28,10,49,-5.70
2021,12,28,10,50,-5.70
2021,12,28,10,51,-5.70
2021,12,28,10,52,-5.70
2021,12,28,10,53,-5.70
2021,12,28,10,54,-5.70
2021,12,28,10,55,-5.70
2021,12,28,10,56,-5.70
2021,12,28,10,57,-5.70
2021,12,28,10,58,-5.80
2021,12,28,10,59,-5.80
2021,12,28,11,00,-5.80
2021,12,28,11,01,-5.80
2021,12,28,11,02,-5.80
2021,12,28,11,03,-5.80
2021,12,28,11,04,-5.80
2021,12,28,11,05,-5.80
2021,12,28,11,06,-5.80
2021,12,28,11,07,-5.80
2021,12,28,11,08,-5.80
2021,12,28,11,09,-5.80
2021,12,28,11,10,-5.80
2021,12,28,11,11,-5.80
2021,12,28,11,12,-5.80
2021,12,28,11,13,-5.80
2021,12,28,11,14,-5.80
2021,12,28,11,15,-5.80
2021,12,28,11,16,-5.80
2021,12,28,11,17,-5.80
2021,12,28,11,18,-5.80
2021,12,28,11,19,-5.90
2021,12,28,11,20,-5.90
2021,12,28,11,21,-5.90
2021,12,28,11,22,-5.90
2021,12,28,11,23,-5.90
2021,12,28,11,24,-5.90
2021,12,28,11,25,-5.90
2021,12,28,11,26,-5.90
2021,12,28,11,27,-5.90
2021,12,28,11,28,-5.90
2021,12,28,11,29,-5.90
2021,12,28,11,30,-5.90
2021,12,28,11,31,-5.90
2021,12,28,11,32,-5.90
2021,12,28,11,33,-5.80
2021,12,28,11,34,-5.80
2021,12,28,11,35,-5.80
2021,12,28,11,36,-5.80
2021,12,28,11,37,-5.80
2021,12,28,11,38,-5.80
2021,12,28,11,39,-5.80
2021,12,28,11,40,-5.80
2021,12,28,11,41,-5.80
2021,12,28,11,42,-5.80
2021,12,28,11,43,-5.80
2021,12,28,11,44,-5.70
2021,12,28,11,45,-5.70
2021,12,28,11,46,-5.70
2021,12,28,11,47,-5.70
2021,12,28,11,48,-5.70
2021,12,28,11,49,-5.70
2021,12,28,11,50,-5.70
2021,12,28,11,51,-5.70
2021,12,28,11,52,-5.70
2021,12,28,11,53,-5.70
2021,12,28,11,54,-5.70
2021,12,28,11,55,-5.70
2021,12,28,11,56,-5.70
2021,12,28,11,57,-5.70
2021,12,28,11,58,-5.70
2021,12,28,11,59,-5.70
2021,12,28,12,00,-5.60
2021,12,28,12,01,-5.60
2021,12,28,12,02,-5.60
2021,12,28,12,03,-5.60
2021,12,28,12,04,-5.60
2021,12,28,12,05,-5.60
2021,12,28,12,06,-5.60
2021,12,28,12,07,-5.60
2021,12,28,12,08,-5.60
2021,12,28,12,09,-5.60
2021,12,28,12,10,-5.60
2021,12,28,12,11,-5.60
2021,12,28,12,12,-5.60
2021,12,28,12,13,-5.60
2021,12,28,12,14,-5.60
2021,12,28,12,15,-5.60
2021,12,28,12,16,-5.60
2021,12,28,12,17,-5.50
2021,12,28,12,18,-5.60
2021,12,28,12,19,-5.60
2021,12,28,12,20,-5.60
2021,12,28,12,21,-5.60
2021,12,28,12,22,-5.60
2021,12,28,12,23,-5.60
2021,12,28,12,24,-5.60
2021,12,28,12,25,-5.60
2021,12,28,12,26,-5.60
2021,12,28,12,27,-5.60
2021,12,28,12,28,-5.60
2021,12,28,12,29,-5.60
2021,12,28,12,30,-5.50
2021,12,28,12,31,-5.50
2021,12,28,12,32,-5.50
2021,12,28,12,33,-5.50
2021,12,28,12,34,-5.50
2021,12,28,12,35,-5.50
2021,12,28,12,36,-5.50
2021,12,28,12,37,-5.50
2021,12,28,12,38,-5.50
2021,12,28,12,39,-5.50
2021,12,28,12,40,-5.40
2021,12,28,12,41,-5.40
2021,12,28,12,42,-5.40
2021,12,28,12,43,-5.40
2021,12,28,12,44,-5.40
2021,12,28,12,45,-5.40
2021,12,28,12,46,-5.40
2021,12,28,12,47,-5.40
2021,12,28,12,48,-5.40
2021,12,28,12,49,-5.40
2021,12,28,12,50,-5.40
2021,12,28,12,51,-5.40
2021,12,28,12,52,-5.40
2021,12,28,12,53,-5.40
2021,12,28,12,54,-5.40
2021,12,28,12,55,-5.40
2021,12,28,12,56,-5.40
2021,12,28,12,57,-5.40
2021,12,28,12,58,-5.40
2021,12,28,12,59,-5.40
2021,12,28,13,00,-5.40
2021,12,28,13,01,-5.40
2021,12,28,13,02,-5.40
2021,12,28,13,03,-5.40
2021,12,28,13,04,-5.40
2021,12,28,13,05,-5.40
2021,12,28,13,06,-5.40
2021,12,28,13,07,-5.40
2021,12,28,13,08,-5.40
2021,12,28,13,09,-5.40
2021,12,28,13,10,-5.30
2021,12,28,13,11,-5.30
2021,12,28,13,12,-5.30
2021,12,28,13,13,-5.30
2021,12,28,13,14,-5.30
2021,12,28,13,15,-5.30
2021,12,28,13,16,-5.30
2021,12,28,13,17,-5.30
2021,12,28,13,18,-5.30
2021,12,28,13,19,-5.30
2021,12,28,13,20,-5.30
2021,12,28,13,21,-5.30
2021,12,28,13,22,-5.30
2021,12,28,13,23,-5.30
2021,12,28,13,24,-5.30
2021,12,28,13,25,-5.30
2021,12,28,13,26,-5.30
2021,12,28,13,27,-5.30
2021,12,28,13,28,-5.30
2021,12,28,13,29,-5.30
2021,12,28,13,30,-5.30
2021,12,28,13,31,-5.30
2021,12,28,13,32,-5.30
2021,12,28,13,33,-5.30
2021,12,28,13,34,-5.20
2021,12,28,13,35,-5.20
2021,12,28,13,36,-5.20
2021,12,28,13,37,-5.20
2021,12,28,13,38,-5.20
2021,12,28,13,39,-5.20
2021,12,28,13,40,-5.20
2021,12,28,13,41,-5.30
2021,12,28,13,42,-5.20
2021,12,28,13,43,-5.20
2021,12,28,13,44,-5.20
2021,12,28,13,45,-5.20
2021,12,28,13,46,-5.20
2021,12,28,13,47,-5.20
2021,12,28,13,48,-5.20
2021,12,28,13,49,-5.20
2021,12,28,13,50,-5.20
2021,12,28,13,51,-5.20
2021,12,28,13,52,-5.20
2021,12,28,13,53,-5.20
2021,12,28,13,54,-5.20
2021,12,28,13,55,-5.20
2021,12,28,13,56,-5.20
2021,12,28,13,57,-5.20
2021,12,28,13,58,-5.20
2021,12,28,13,59,-5.20
2021,12,28,14,00,-5.10
2021,12,28,14,01,-5.10
2021,12,28,14,02,-5.10
2021,12,28,14,03,-5.10
2021,12,28,14,04,-5.10
2021,12,28,14,05,-5.10
2021,12,28,14,06,-5.10
2021,12,28,14,07,-5.10
2021,12,28,14,08,-5.10
2021,12,28,14,09,-5.10
2021,12,28,14,10,-5.10
2021,12,28,14,11,-5.10
2021,12,28,14,12,-5.10
2021,12,28,14,13,-5.10
2021,12,28,14,14,-5.20
2021,12,28,14,15,-5.20
2021,12,28,14,16,-5.20
2021,12,28,14,17,-5.20
2021,12,28,14,18,-5.20
2021,12,28,14,19,-5.20
2021,12,28,14,20,-5.20
2021,12,28,14,21,-5.20
2021,12,28,14,22,-5.20
2021,12,28,14,23,-5.10
2021,12,28,14,24,-5.10
2021,12,28,14,25,-5.10
2021,12,28,14,26,-5.10
2021,12,28,14,27,-5.10
2021,12,28,14,28,-5.10
2021,12,28,14,29,-5.10
2021,12,28,14,30,-5.10
2021,12,28,14,31,-5.10
2021,12,28,14,32,-5.10
2021,12,28,14,33,-5.10
2021,12,28,14,34,-5.10
2021,12,28,14,35,-5.10
2021,12,28,14,36,-5.10
2021,12,28,14,37,-5.10
2021,12,28,14,38,-5.10
2021,12,28,14,39,-5.10
2021,12,28,14,40,-5.10
2021,12,28,14,41,-5.10
2021,12,28,14,42,-5.10
2021,12,28,14,43,-5.10
2021,12,28,14,44,-5.10
2021,12,28,14,45,-5.10
2021,12,28,14,46,-5.10
2021,12,28,14,47,-5.10
2021,12,28,14,48,-5.10
2021,12,28,14,49,-5.10
2021,12,28,14,50,-5.10
2021,12,28,14,51,-5.10
2021,12,28,14,52,-5.10
2021,12,28,14,53,-5.10
2021,12,28,14,54,-5.10
2021,12,28,14,55,-5.10
2021,12,28,14,56,-5.10
2021,12,28,14,57,-5.10
2021,12,28,14,58,-5.10
2021,12,28,14,59,-5.10
2021,12,28,15,00,-5.10
2021,12,28,15,01,-5.10
2021,12,28,15,02,-5.10
2021,12,28,15,03,-5.10
2021,12,28,15,04,-5.10
2021,12,28,15,05,-5.10
2021,12,28,15,06,-5.10
2021,12,28,15,07,-5.10
2021,12,28,15,08,-5.10
2021,12,28,15,09,-5.10
2021,12,28,15,10,-5.10
2021,12,28,15,11,-5.10
2021,12,28,15,12,-5.10
2021,12,28,15,13,-5.10
2021,12,28,15,14,-5.10
2021,12,28,15,15,-5.10
2021,12,28,15,16,-5.10
2021,12,28,15,17,-5.10
2021,12,28,15,18,-5.10
2021,12,28,15,19,-5.10
2021,12,28,15,20,-5.10
2021,12,28,15,21,-5.10
2021,12,28,15,22,-5.10
2021,12,28,15,23,-5.10
2021,12,28,15,24,-5.10
2021,12,28,15,25,-5.10
2021,12,28,15,26,-5.10
2021,12,28,15,27,-5.00
2021,12,28,15,28,-5.00
2021,12,28,15,29,-5.00
2021,12,28,15,30,-5.00
2021,12,28,15,31,-5.00
2021,12,28,15,32,-5.00
2021,12,28,15,33,-4.90
2021,12,28,15,34,-4.90
2021,12,28,15,35,-4.90
2021,12,28,15,36,-4.90
2021,12,28,15,37,-4.90
2021,12,28,15,38,-4.90
2021,12,28,15,39,-4.90
2021,12,28,15,40,-4.90
2021,12,28,15,41,-4.90
2021,12,28,15,42,-4.90
2021,12,28,15,43,-4.90
2021,12,28,15,44,-4.90
2021,12,28,15,45,-4.90
2021,12,28,15,46,-4.90
2021,12,28,15,47,-4.90
2021,12,28,15,48,-4.90
2021,12,28,15,49,-4.90
2021,12,28,15,50,-5.00
2021,12,28,15,51,-5.00
2021,12,28,15,52,-5.00
2021,12,28,15,53,-5.00
2021,12,28,15,54,-5.10
2021,12,28,15,55,-5.10
2021,12,28,15,56,-5.10
2021,12,28,15,57,-5.10
2021,12,28,15,58,-5.10
2021,12,28,15,59,-5.10
2021,12,28,16,00,-5.10
2021,12,28,16,01,-5.10
2021,12,28,16,02,-5.20
2021,12,28,16,03,-5.20
2021,12,28,16,04,-5.20
2021,12,28,16,05,-5.20
2021,12,28,16,06,-5.20
2021,12,28,16,07,-5.20
2021,12,28,16,08,-5.20
2021,12,28,16,09,-5.20
2021,12,28,16,10,-5.30
2021,12,28,16,11,-5.30
2021,12,28,16,12,-5.30
2021,12,28,16,13,-5.30
2021,12,28,16,14,-5.30
2021,12,28,16,15,-5.30
2021,12,28,16,16,-5.30
2021,12,28,16,17,-5.30
2021,12,28,16,18,-5.30
2021,12,28,16,19,-5.30
2021,12,28,16,20,-5.30
2021,12,28,16,21,-5.30
2021,12,28,16,22,-5.30
2021,12,28,16,23,-5.30
2021,12,28,16,24,-5.40
2021,12,28,16,25,-5.30
2021,12,28,16,26,-5.40
2021,12,28,16,27,-5.40
2021,12,28,16,28,-5.40
2021,12,28,16,29,-5.40
2021,12,28,16,30,-5.40
2021,12,28,16,31,-5.40
2021,12,28,16,32,-5.40
2021,12,28,16,33,-5.40
2021,12,28,16,34,-5.40
2021,12,28,16,35,-5.40
2021,12,28,16,36,-5.40
2021,12,28,16,37,-5.40
2021,12,28,16,38,-5.40
2021,12,28,16,39,-5.40
2021,12,28,16,40,-5.40
2021,12,28,16,41,-5.40
2021,12,28,16,42,-5.40
2021,12,28,16,43,-5.40
2021,12,28,16,44,-5.40
2021,12,28,16,45,-5.40
2021,12,28,16,46,-5.40
2021,12,28,16,47,-5.40
2021,12,28,16,48,-5.40
2021,12,28,16,49,-5.40
2021,12,28,16,50,-5.40
2021,12,28,16,51,-5.40
2021,12,28,16,52,-5.40
2021,12,28,16,53,-5.40
2021,12,28,16,54,-5.40
2021,12,28,16,55,-5.40
2021,12,28,16,56,-5.40
2021,12,28,16,57,-5.40
2021,12,28,16,58,-5.40
2021,12,28,16,59,-5.40
2021,12,28,17,00,-5.40
2021,12,28,17,01,-5.40
2021,12,28,17,02,-5.40
2021,12,28,17,03,-5.40
2021,12,28,17,04,-5.40
2021,12,28,17,05,-5.40
2021,12,28,17,06,-5.40
2021,12,28,17,07,-5.40
2021,12,28,17,08,-5.40
2021,12,28,17,09,-5.40
2021,12,28,17,10,-5.40
2021,12,28,17,11,-5.40
2021,12,28,17,12,-5.40
2021,12,28,17,13,-5.40
2021,12,28,17,14,-5.40
2021,12,28,17,15,-5.40
2021,12,28,17,16,-5.40
2021,12,28,17,17,-5.40
2021,12,28,17,18,-5.40
2021,12,28,17,19,-5.40
2021,12,28,17,20,-5.40
2021,12,28,17,21,-5.40
2021,12,28,17,22,-5.40
2021,12,28,17,23,-5.40
2021,12,28,17,24,-5.40
2021,12,28,17,25,-5.40
2021,12,28,17,26,-5.40
2021,12,28,17,27,-5.40
2021,12,28,17,28,-5.40
2021,12,28,17,29,-5.40
2021,12,28,17,30,-5.40
2021,12,28,17,31,-5.40
2021,12,28,17,32,-5.40
2021,12,28,17,33,-5.40
2021,12,28,17,34,-5.40
2021,12,28,17,35,-5.40
2021,12,28,17,36,-5.40
2021,12,28,17,37,-5.40
2021,12,28,17,38,-5.40
2021,12,28,17,39,-5.40
2021,12,28,17,40,-5.40
2021,12,28,17,41,-5.40
2021,12,28,17,42,-5.40
2021,12,28,17,43,-5.40
2021,12,28,17,44,-5.40
2021,12,28,17,45,-5.40
2021,12,28,17,46,-5.40
2021,12,28,17,47,-5.40
2021,12,28,17,48,-5.40
2021,12,28,17,49,-5.40
2021,12,28,17,50,-5.40
2021,12,28,17,51,-5.40
2021,12,28,17,52,-5.40
2021,12,28,17,53,-5.40
2021,12,28,17,54,-5.40
2021,12,28,17,55,-5.40
2021,12,28,17,56,-5.40
2021,12,28,17,57,-5.40
2021,12,28,17,58,-5.40
2021,12,28,17,59,-5.40
2021,12,28,18,00,-5.40
2021,12,28,18,01,-5.40
2021,12,28,18,02,-5.30
2021,12,28,18,03,-5.30
2021,12,28,18,04,-5.30
2021,12,28,18,05,-5.30
2021,12,28,18,06,-5.30
2021,12,28,18,07,-5.30
2021,12,28,18,08,-5.30
2021,12,28,18,09,-5.30
2021,12,28,18,10,-5.30
2021,12,28,18,11,-5.30
2021,12,28,18,12,-5.30
2021,12,28,18,13,-5.30
2021,12,28,18,14,-5.30
2021,12,28,18,15,-5.30
2021,12,28,18,16,-5.30
2021,12,28,18,17,-5.30
2021,12,28,18,18,-5.30
2021,12,28,18,19,-5.30
2021,12,28,18,20,-5.30
2021,12,28,18,21,-5.30
2021,12,28,18,22,-5.30
2021,12,28,18,23,-5.30
2021,12,28,18,24,-5.30
2021,12,28,18,25,-5.30
2021,12,28,18,26,-5.30
2021,12,28,18,27,-5.30
2021,12,28,18,28,-5.30
2021,12,28,18,29,-5.30
2021,12,28,18,30,-5.30
2021,12,28,18,31,-5.30
2021,12,28,18,32,-5.30
2021,12,28,18,33,-5.30
2021,12,28,18,34,-5.30
2021,12,28,18,35,-5.30
2021,12,28,18,36,-5.30
2021,12,28,18,37,-5.30
2021,12,28,18,38,-5.30
2021,12,28,18,39,-5.30
2021,12,28,18,40,-5.30
2021,12,28,18,41,-5.30
2021,12,28,18,42,-5.30
2021,12,28,18,43,-5.30
2021,12,28,18,44,-5.30
2021,12,28,18,45,-5.30
2021,12,28,18,46,-5.30
2021,12,28,18,47,-5.30
2021,12,28,18,48,-5.30
2021,12,28,18,49,-5.30
2021,12,28,18,50,-5.30
2021,12,28,18,51,-5.20
2021,12,28,18,52,-5.20
2021,12,28,18,53,-5.20
2021,12,28,18,54,-5.20
2021,12,28,18,55,-5.20
2021,12,28,18,56,-5.20
2021,12,28,18,57,-5.20
2021,12,28,18,58,-5.20
2021,12,28,18,59,-5.20
2021,12,28,19,00,-5.20
2021,12,28,19,01,-5.20
2021,12,28,19,02,-5.20
2021,12,28,19,03,-5.20
2021,12,28,19,04,-5.20
2021,12,28,19,05,-5.20
2021,12,28,19,06,-5.20
2021,12,28,19,07,-5.20
2021,12,28,19,08,-5.20
2021,12,28,19,09,-5.20
2021,12,28,19,10,-5.20
2021,12,28,19,11,-5.20
2021,12,28,19,12,-5.20
2021,12,28,19,13,-5.20
2021,12,28,19,14,-5.20
2021,12,28,19,15,-5.20
2021,12,28,19,16,-5.20
2021,12,28,19,17,-5.20
2021,12,28,19,18,-5.20
2021,12,28,19,19,-5.20
2021,12,28,19,20,-5.20
2021,12,28,19,21,-5.20
2021,12,28,19,22,-5.20
2021,12,28,19,23,-5.20
2021,12,28,19,24,-5.20
2021,12,28,19,25,-5.20
2021,12,28,19,26,-5.10
2021,12,28,19,27,-5.10
2021,12,28,19,28,-5.10
2021,12,28,19,29,-5.10
2021,12,28,19,30,-5.10
2021,12,28,19,31,-5.10
2021,12,28,19,32,-5.10
2021,12,28,19,33,-5.10
2021,12,28,19,34,-5.10
2021,12,28,19,35,-5.10
2021,12,28,19,36,-5.10
2021,12,28,19,37,-5.10
2021,12,28,19,38,-5.10
2021,12,28,19,39,-5.10
2021,12,28,19,40,-5.10
2021,12,28,19,41,-5.10
2021,12,28,19,42,-5.10
2021,12,28,19,43,-5.10
2021,12,28,19,44,-5.10
2021,12,28,19,45,-5.10
2021,12,28,19,46,-5.10
2021,12,28,19,47,-5.10
2021,12,28,19,48,-5.10
2021,12,28,19,49,-5.10
2021,12,28,19,50,-5.10
2021,12,28,19,51,-5.10
2021,12,28,19,52,-5.10
2021,12,28,19,53,-5.10
2021,12,28,19,54,-5.10
2021,12,28,19,55,-5.10
2021,12,28,19,56,-5.00
2021,12,28,19,57,-5.00
2021,12,28,19,58,-5.00
2021,12,28,19,59,-5.00
2021,12,28,20,00,-5.00
2021,12,28,20,01,-5.00
2021,12,28,20,02,-5.00
2021,12,28,20,03,-5.00
2021,12,28,20,04,-5.00
2021,12,28,20,05,-5.00
2021,12,28,20,06,-5.00
2021,12,28,20,07,-5.00
2021,12,28,20,08,-4.90
2021,12,28,20,09,-4.90
2021,12,28,20,10,-4.90
2021,12,28,20,11,-4.90
2021,12,28,20,12,-4.90
2021,12,28,20,13,-4.90
2021,12,28,20,14,-4.90
2021,12,28,20,15,-4.90
2021,12,28,20,16,-4.90
2021,12,28,20,17,-4.90
2021,12,28,20,18,-4.90
2021,12,28,20,19,-4.90
2021,12,28,20,20,-4.90
2021,12,28,20,21,-4.90
2021,12,28,20,22,-4.80
2021,12,28,20,23,-4.90
2021,12,28,20,24,-4.80
2021,12,28,20,25,-4.80
2021,12,28,20,26,-4.80
2021,12,28,20,27,-4.80
2021,12,28,20,28,-4.80
2021,12,28,20,29,-4.80
2021,12,28,20,30,-4.80
2021,12,28,20,31,-4.80
2021,12,28,20,32,-4.80
2021,12,28,20,33,-4.80
2021,12,28,20,34,-4.80
2021,12,28,20,35,-4.80
2021,12,28,20,36,-4.80
2021,12,28,20,37,-4.80
2021,12,28,20,38,-4.80
2021,12,28,20,39,-4.80
2021,12,28,20,40,-4.80
2021,12,28,20,41,-4.80
2021,12,28,20,42,-4.70
2021,12,28,20,43,-4.70
2021,12,28,20,44,-4.70
2021,12,28,20,45,-4.70
2021,12,28,20,46,-4.70
2021,12,28,20,47,-4.70
2021,12,28,20,48,-4.70
2021,12,28,20,49,-4.70
2021,12,28,20,50,-4.70
2021,12,28,20,51,-4.70
2021,12,28,20,52,-4.70
2021,12,28,20,53,-4.70
2021,12,28,20,54,-4.70
2021,12,28,20,55,-4.70
2021,12,28,20,56,-4.70
2021,12,28,20,57,-4.70
2021,12,28,20,58,-4.70
2021,12,28,20,59,-4.70
2021,12,28,21,00,-4.70
2021,12,28,21,01,-4.70
2021,12,28,21,02,-4.70
2021,12,28,21,03,-4.70
2021,12,28,21,04,-4.70
2021,12,28,21,05,-4.70
2021,12,28,21,06,-4.70
2021,12,28,21,07,-4.70
2021,12,28,21,08,-4.70
2021,12,28,21,09,-4.70
2021,12,28,21,10,-4.70
2021,12,28,21,11,-4.70
2021,12,28,21,12,-4.70
2021,12,28,21,13,-4.70
2021,12,28,21,14,-4.70
2021,12,28,21,15,-4.70
2021,12,28,21,16,-4.70
2021,12,28,21,17,-4.70
2021,12,28,21,18,-4.70
2021,12,28,21,19,-4.70
2021,12,28,21,20,-4.70
2021,12,28,21,21,-4.70
2021,12,28,21,22,-4.70
2021,12,28,21,23,-4.70
2021,12,28,21,24,-4.70
2021,12,28,21,25,-4.70
2021,12,28,21,26,-4.60
2021,12,28,21,27,-4.60
2021,12,28,21,28,-4.60
2021,12,28,21,29,-4.60
2021,12,28,21,30,-4.60
2021,12,28,21,31,-4.60
2021,12,28,21,32,-4.70
2021,12,28,21,33,-4.60
2021,12,28,21,34,-4.70
2021,12,28,21,35,-4.70
2021,12,28,21,36,-4.70
2021,12,28,21,37,-4.70
2021,12,28,21,38,-4.70
2021,12,28,21,39,-4.70
2021,12,28,21,40,-4.70
2021,12,28,21,41,-4.70
2021,12,28,21,42,-4.70
2021,12,28,21,43,-4.70
2021,12,28,21,44,-4.70
2021,12,28,21,45,-4.70
2021,12,28,21,46,-4.70
2021,12,28,21,47,-4.70
2021,12,28,21,48,-4.70
2021,12,28,21,49,-4.70